Location: Heidgraben
(53.7081°N, 9.6576°E)
Time: 20:56:39
(UTC+00:00)

PSLV R/B - Pass Details

Date: 05 July 2020
Orbit: 598 x 701 km, 97.9° (Epoch: 14 August)

Event Time Altitude Azimuth Distance (km) Brightness Sun altitude
Rises 23:27:42 0° 19° (NNE) 2,859 8.5 -13.6°
Reaches altitude 10° 23:29:58 10° 26° (NNE) 1,953 7.2 -13.6°
Maximum altitude 23:34:01 44° 99° (E) 842 4.2 -13.6°
Enters shadow 23:36:36 20° 163° (SSE) 1,409 4.8 -13.6°
